Location: Unspecified
(0.0000°N, 0.0000°E)
Time: 07:02:42
(UTC+00:00)

N. Korean satellite - Pass Details

Date: 17 October 2019
Orbit: 455 x 508 km, 97.2° (Epoch: 14 October)

Event Time Altitude Azimuth Distance (km) Brightness Sun altitude
Rises 18:02:34 0° 190° (S) 2,496 10.4 -4.2°
Reaches altitude 10° 18:04:54 10° 204° (SSW) 1,610 9.7 -4.8°
Maximum altitude 18:07:42 23° 259° (WSW) 1,012 9.5 -5.5°
Drops below altitude 10° 18:10:28 10° 313° (NW) 1,589 9.7 -6.2°
Sets 18:12:46 0° 328° (NNW) 2,455 10.5 -6.8°
